(433) Eros
ephemeris date magn radius delta ra dec elong phase
Today3 Jul 202513.81.696 AU1.421 AU00h42m+12°18'86.5°36.7°
(433) Eros - 2025-07-03
astro.vanbuitenen.nl


 
-1 year
-1 month
-1 day
Now
+1 day
+1 month
+1 year

The interactive orbit chart above shows the body's path through the solar system and its position at the given date. Green and blue lines are shown perpendicular to the ecliptic plane: Green if the path is above the ecliptic plane, blue if it is below. (Left-click and drag to rotate the view; Right-click and drag to move the view; Use scroll wheel to zoom in our out.)

The orbital elements of Eros are:

            e (Eccentricity)                : 0.2227480
            a (Semimajor axis)              : 1.4581590
            i (Inclination)                 : 10.82831
            Ω (Longitude of ascending node) : 304.27188
            ω (Argument of perihelion)      : 178.92259
            M (Mean anomaly)                : 198.59804
            Epoch                           : 2025 May 05

            L (Longitude of perihelion)     : 303.21365
            B (Latitude of perihelion)      : 0.20240
            P (Orbital period in years)     : 1.76            
        

The light curve chart below shows the estimated development of the minor planet's magnitude.


The all-sky chart below shows the path of the minor planet over the same period as the light curve. The current position is marked yellow.





The following chart shows the path of the minor planet in the next few days. The field of view is optimized for (~10x50) binoculars and finderscopes. A more printer-friendly version of the same chart can be found below.




Ephemerides:
Date       Time       RA (2000)    DEC (2000)    delta   radius  elong  phase   PA    magn
2025-07-03 00:00 UT   00 42 08.3   +12 18 19     1.421    1.696   86.5   36.7   247   13.8 
2025-07-03 05:39 UT   00 42 30.5   +12 22 33     1.418    1.696   86.6   36.8   247   13.8 
2025-07-04 00:00 UT   00 43 42.6   +12 36 20     1.410    1.694   87.0   36.8   247   13.8 
2025-07-05 00:00 UT   00 45 16.5   +12 54 23     1.399    1.692   87.5   36.9   247   13.8 
2025-07-06 00:00 UT   00 46 50.0   +13 12 29     1.388    1.690   87.9   36.9   247   13.7 
2025-07-07 00:00 UT   00 48 23.1   +13 30 37     1.376    1.688   88.4   37.0   247   13.7 
2025-07-08 00:00 UT   00 49 55.9   +13 48 48     1.365    1.686   88.9   37.1   247   13.7 
2025-07-09 00:00 UT   00 51 28.3   +14 07 01     1.354    1.684   89.4   37.1   247   13.7 
2025-07-10 00:00 UT   00 53 00.4   +14 25 17     1.343    1.683   89.9   37.2   247   13.7 
2025-07-11 00:00 UT   00 54 32.0   +14 43 35     1.332    1.681   90.3   37.2   247   13.7 
2025-07-12 00:00 UT   00 56 03.2   +15 01 56     1.321    1.678   90.8   37.3   247   13.6 
2025-07-13 00:00 UT   00 57 34.1   +15 20 20     1.310    1.676   91.3   37.3   247   13.6 
2025-07-14 00:00 UT   00 59 04.5   +15 38 46     1.299    1.674   91.8   37.4   247   13.6 
2025-07-15 00:00 UT   01 00 34.4   +15 57 15     1.288    1.672   92.3   37.4   247   13.6 
2025-07-16 00:00 UT   01 02 04.0   +16 15 47     1.277    1.670   92.8   37.4   247   13.6 
2025-07-17 00:00 UT   01 03 33.0   +16 34 22     1.266    1.668   93.3   37.5   247   13.5 
2025-07-18 00:00 UT   01 05 01.6   +16 52 59     1.255    1.666   93.8   37.5   247   13.5 
2025-07-19 00:00 UT   01 06 29.7   +17 11 39     1.244    1.664   94.3   37.5   247   13.5 
2025-07-20 00:00 UT   01 07 57.3   +17 30 22     1.233    1.662   94.8   37.5   247   13.5 


    Terminology:
            
    delta:  distance between minor planet and earth in AU
    radius: distance between minor planet and sun in AU
    magn:   magnitude (brightness) estimate    
    ra:     right ascension in hours (24h = 360deg)
    dec:    declination in degrees
    elong:  elongation in degrees (angle sun-earth-minor planet)    
    phase:  phase angle in degrees (angle sun-minor planet-earth)        
    AU:     Astronomical Unit (mean distance between earth and sun: 149597870.7 km
    

Orbital elements provided by the MPC (Minor Planet Center).
Calculations by a modified version of AAPlus, a C# implementation of the AA+ project by PJ Naughter from the algorithms presented in the book "Astronomical Algorithms" by Jean Meeus.
NGC2000 dso catalog and star labels from VizieR as provided by the Strasbourg astronomical Data Center.
Tycho2 catalog from the ESO archive.